Back to catalog

STARLINK-4471

AliveCommunicationsSSO
NORAD 53664·PAYLOAD·🇺🇸 United States

Launched Aug 31, 2022 from Vandenberg Space Force Base

Loading…

Next Passes (next 24 hours)

TLE

FreshSource: CelesTrak SupGP

Epoch: Sep 14, 2026, 20:47 UTC

1 53664C 22105S   26257.86645833 -.00040165  00000+0 -12479-2 0  2578
2 53664  97.2834 134.7138 0001676  89.9637  61.4095 15.33430868    15

Track STARLINK-4471 in real time with AllMySat

Download on the App Store